Location: Enborne
(51.3833°N, 1.3667°W)
Time: 12:25:30
(UTC+00:00)

CZ-2C R/B - Pass Details

Date: 18 September 2020
Orbit: 785 x 870 km, 98.2° (Epoch: 23 October)

Event Time Altitude Azimuth Distance (km) Brightness Sun altitude
Rises 20:56:19 0° 9° (N) 3,404 6.2 -24.6°
Reaches altitude 10° 20:58:47 10° 3° (N) 2,477 5.6 -24.9°
Maximum altitude 21:03:51 39° 296° (WNW) 1,257 4.0 -25.5°
Drops below altitude 10° 21:08:59 10° 229° (SW) 2,502 5.2 -26.1°
Sets 21:11:30 0° 222° (SW) 3,442 5.9 -26.4°
